Minneapolis Flying Cloud, MN

5:59 AM CDT on October 19, 2019 (GMT -0500)
Flying Cloud

Weather History for KFCM - August, 2019

Change the Weather History Date:

Monday, August 26, 2019

  Actual Average Record
Temperature  
Mean Temperature 66 °F -  
Max Temperature 71 °F 78 °F 96 °F (2013)
Min Temperature 62 °F 59 °F 48 °F (2015)
Cooling Degree Days 2    
Growing Degree Days 16 (Base 50)    
Moisture  
Dew Point 61 °F    
Average Humidity 84    
Maximum Humidity 93    
Minimum Humidity 75    
Precipitation  
Precipitation 0.73 in - - ()
Sea Level Pressure  
Sea Level Pressure 29.75 in    
Wind  
Wind Speed 7 mph (SSW)    
Max Wind Speed 10 mph    
Max Gust Speed -    
Visibility 8 miles    
Events Rain , Thunderstorm    
Averages and records for this station are not official NWS values.
T = Trace of Precipitation, MM = Missing Value Source: NWS Daily Summary

Daily Weather History Graph

Daily Weather History Graph

Search for Another Location

Airport or City:

Astronomy

Aug. 26, 2019 Rise Set
Actual Time 6:28 AM CDT 8:01 PM CDT
Civil Twilight 5:58 AM CDT 8:32 PM CDT
Nautical Twilight 5:20 AM CDT 9:09 PM CDT
Astronomical Twilight 4:40 AM CDT 9:49 PM CDT
Moon 1:45 AM CDT (8/26) 5:35 PM CDT (8/26)
Length of Visible Light 14h 34m
Length of Day
13h 33m
Waning Crescent, 19% of the Moon is Illuminated
Aug 26
Waning Crescent
Aug 30
New
Sep 5
First Quarter
Sep 13
Full
Sep 21
Last Quarter

Hourly Weather History & Observations

Time (CDT) Temp. Dew Point Humidity Pressure Visibility Wind Dir Wind Speed Gust Speed Precip Events Conditions
12:53 AM 64.9 °F 57.9 °F 78% 29.86 in 10.0 mi SE 9.2 mph - N/A   Overcast
1:53 AM 64.9 °F 57.9 °F 78% 29.85 in 10.0 mi SE 8.1 mph - N/A   Overcast
2:53 AM 64.9 °F 57.0 °F 75% 29.83 in 10.0 mi ESE 8.1 mph - N/A   Overcast
3:53 AM 64.0 °F 57.0 °F 78% 29.83 in 10.0 mi SE 6.9 mph - N/A   Overcast
4:15 AM 64.0 °F 57.0 °F 78% 29.84 in 10.0 mi ESE 8.1 mph - N/A   Overcast
4:53 AM 64.0 °F 57.0 °F 78% 29.81 in 10.0 mi ESE 9.2 mph - N/A   Overcast
5:09 AM 64.0 °F 57.0 °F 78% 29.83 in 10.0 mi SSE 6.9 mph - N/A   Overcast
5:53 AM 64.0 °F 57.0 °F 78% 29.81 in 10.0 mi SSE 9.2 mph - N/A   Overcast
6:53 AM 64.0 °F 57.0 °F 78% 29.82 in 10.0 mi SSE 9.2 mph - N/A   Overcast
7:53 AM 64.9 °F 57.9 °F 78% 29.80 in 10.0 mi SSE 6.9 mph - N/A   Overcast
8:53 AM 66.0 °F 59.0 °F 78% 29.77 in 10.0 mi SE 8.1 mph - N/A   Overcast
9:06 AM 64.9 °F 59.0 °F 81% 29.78 in 10.0 mi SSE 8.1 mph - N/A   Overcast
9:53 AM 68.0 °F 60.1 °F 76% 29.75 in 10.0 mi ESE 8.1 mph - N/A   Overcast
10:53 AM 66.9 °F 60.1 °F 79% 29.75 in 10.0 mi SE 9.2 mph - N/A   Overcast
11:53 AM 66.9 °F 60.1 °F 79% 29.74 in 10.0 mi SSE 8.1 mph - N/A   Overcast
12:46 PM 64.9 °F 62.1 °F 90% 29.74 in 2.5 mi WSW 6.9 mph - 0.04 in Rain Rain
1:13 PM 64.0 °F 62.1 °F 93% 29.74 in 0.8 mi SW 3.5 mph - 0.23 in Rain Heavy Rain
1:31 PM 64.0 °F 62.1 °F 93% 29.74 in 1.0 mi West 3.5 mph - 0.34 in Rain Light Rain
1:40 PM 64.0 °F 62.1 °F 93% 29.74 in 1.2 mi West 3.5 mph - 0.37 in Rain Rain
1:53 PM 64.0 °F 62.1 °F 93% 29.75 in 0.8 mi West 5.8 mph - 0.46 in Rain Heavy Rain
2:08 PM 64.9 °F 62.1 °F 90% 29.74 in 1.0 mi West 4.6 mph - 0.10 in Rain Rain
2:32 PM 64.9 °F 62.1 °F 90% 29.74 in 2.0 mi WSW 6.9 mph - 0.16 in Rain Light Rain
2:53 PM 64.9 °F 63.0 °F 93% 29.73 in 2.0 mi Calm Calm - 0.21 in Rain Rain
3:05 PM 64.9 °F 63.0 °F 93% 29.73 in 4.0 mi West 3.5 mph - 0.02 in Rain Light Rain
3:53 PM 66.0 °F 64.0 °F 93% 29.70 in 10.0 mi SW 6.9 mph - 0.06 in Rain Light Rain
4:02 PM 66.0 °F 64.0 °F 93% 29.71 in 10.0 mi SW 5.8 mph - 0.00 in Rain Light Rain
4:53 PM 69.1 °F 64.0 °F 84% 29.69 in 10.0 mi SW 8.1 mph - 0.00 in   Mostly Cloudy
5:00 PM 70.0 °F 64.0 °F 81% 29.70 in 10.0 mi SW 9.2 mph - N/A   Mostly Cloudy
5:11 PM 69.1 °F 64.0 °F 84% 29.69 in 10.0 mi SW 6.9 mph - N/A   Scattered Clouds
5:53 PM 71.1 °F 63.0 °F 75% 29.68 in 10.0 mi Variable 5.8 mph - N/A   Scattered Clouds
6:53 PM 69.1 °F 63.0 °F 81% 29.68 in 10.0 mi SSW 5.8 mph - N/A   Scattered Clouds
7:53 PM 68.0 °F 64.0 °F 87% 29.69 in 10.0 mi SSW 10.4 mph - 0.00 in Rain Light Rain
8:00 PM 68.0 °F 63.0 °F 84% 29.69 in 10.0 mi South 8.1 mph - 0.00 in Rain , Thunderstorm Light Rain
8:15 PM 66.9 °F 63.0 °F 87% 29.70 in 10.0 mi SSW 6.9 mph - 0.00 in   Scattered Clouds
8:53 PM 64.9 °F 60.1 °F 84% 29.70 in 10.0 mi WSW 6.9 mph - 0.00 in   Clear
9:53 PM 62.1 °F 59.0 °F 90% 29.71 in 10.0 mi West 3.5 mph - N/A   Clear
10:53 PM 62.1 °F 59.0 °F 90% 29.72 in 10.0 mi WNW 6.9 mph - N/A   Clear
11:53 PM 64.0 °F 57.9 °F 80% 29.71 in 10.0 mi West 4.6 mph - N/A   Clear